[[{"header":{"parameterUnit":"m.s-1","parameterCategory":1,"la1":30.2992,"la2":30.254,"lo1":-89.0895,"lo2":-89.0443,"dy":0.0025,"dx":0.0025,"nx":19,"ny":19,"refTime":"2026-03-09T03:00:00:Z","depth":0,"parameterNumber":2,"parameterNumberName":"U-component_of_WINDS"},"data":[0,0,0,0.0207,0.0209,0.033,0.0331,0.0473,0.0475,0,0,0,0,0,0,0,0,0,0,0,0.0162,0.0162,0.0206,0.0209,0.033,0.0331,0.0473,0.0475,0,0,0,0,0,0,0,0,0,0,0,0.0161,0.0162,0.0163,0.021,0.033,0.0331,0.0473,0.0386,0,0,0,0,0,0,0,0,0,0,0.0271,0.022,0.0162,0.0163,0.021,0.033,0.0331,0.0382,0.0392,0.0413,0,0.0428,0,0.0453,0.0483,0.0484,0,0,0,0.0216,0.0212,0.0253,0.0163,0.0211,0.033,0.0278,0.0388,0.0398,0.0425,0.043,0.0436,0.0456,0.0484,0.0485,0.058,0.058,0,0,0.0209,0.0179,0.0246,0.0259,0.0239,0.0274,0.0281,0.0394,0.0398,0.0431,0.0439,0.0458,0.0485,0.0486,0.058,0.058,0,0,0,0.0185,0.0174,0.0212,0.0253,0.0276,0.0277,0.0286,0.0393,0.0408,0.0441,0.046,0.0486,0.0487,0.058,0.058,0.0556,0,0,0,0.0182,0.016,0.0209,0.0192,0.0273,0.0336,0.0282,0.04,0.0414,0.0459,0.0486,0.0488,0.058,0.058,0.0556,0.055,0,0,0,0.0157,0.0157,0.0172,0.019,0.0241,0.0335,0.0356,0.0404,0.0425,0.0484,0.0489,0.058,0.058,0.0557,0.0551,0.0566,0,0,0,0.0122,0.0149,0.0171,0.0209,0.024,0.0319,0.0356,0.0417,0.0464,0.0486,0.058,0.058,0.0557,0.0551,0.0566,0.0573,0.0573,0,0,0.014,0.015,0.0175,0.0198,0.0265,0.0303,0.0367,0.044,0.0474,0.0543,0.0546,0.0556,0.0551,0.0566,0.0584,0.0584,0,0,0,0.0171,0.0188,0.0213,0.0256,0.0311,0.0358,0.0424,0.0451,0.0511,0.0503,0.0567,0.0565,0.0575,0.058,0.058,0.059,0.0581,0.0581,0.0581,0.0153,0.0194,0.0238,0.0293,0.0334,0.0402,0.0439,0.0487,0.0517,0.0532,0.0553,0.0559,0.0563,0.0563,0.0574,0.056,0.056,0.056,0.056,0.0183,0.0214,0.0252,0.0308,0.0352,0.04,0.0466,0.0486,0.0537,0.0546,0.0558,0.0563,0.0561,0.0573,0.0558,0.0559,0.0559,0.0559,0.0559,0.0175,0.0197,0.0229,0.0295,0.0342,0.0398,0.0445,0.0484,0.052,0.0531,0.0558,0.0558,0.0563,0.0541,0.0541,0.0541,0.0541,0.0541,0.0541,0.0155,0.0191,0.0226,0.0287,0.032,0.0368,0.0435,0.0469,0.0516,0.0541,0.0541,0.0569,0.0553,0.0549,0.0542,0.0542,0.0542,0.0542,0.0541,0.017,0.0172,0.0226,0.0258,0.0333,0.0377,0.0425,0.049,0.0524,0.0546,0.0573,0.0554,0.0569,0.0569,0.0565,0.0563,0.0563,0.0563,0.0563,0.0163,0.0174,0.0237,0.0287,0.034,0.0389,0.0449,0.0502,0.0558,0.0581,0.0587,0.0586,0.0584,0.0599,0.0599,0.0596,0.0602,0.0602,0.0602,0.0174,0.0192,0.0235,0.0289,0.035,0.0402,0.046,0.0516,0.058,0.0605,0.0601,0.0599,0.0597,0.0594,0.0618,0.0617,0.0612,0,0]},{"header":{"parameterUnit":"m.s-1","parameterCategory":1,"la1":30.2992,"la2":30.254,"lo1":-89.0895,"lo2":-89.0443,"dy":0.0025,"dx":0.0025,"nx":19,"ny":19,"refTime":"2026-03-09T03:00:00:Z","depth":0,"parameterNumber":3,"parameterNumberName":"V-component_of_WINDS"},"data":[0,0,0,1.843,1.843,1.8437,1.8437,1.8445,1.8446,0,0,0,0,0,0,0,0,0,0,0,1.8427,1.8427,1.843,1.843,1.8437,1.8437,1.8445,1.8446,0,0,0,0,0,0,0,0,0,0,0,1.8427,1.8427,1.8427,1.843,1.8437,1.8437,1.8445,1.844,0,0,0,0,0,0,0,0,0,0,1.8433,1.843,1.8427,1.8427,1.843,1.8437,1.8437,1.844,1.8441,1.8442,0,1.8443,0,1.8444,1.8446,1.8446,0,0,0,1.843,1.843,1.8432,1.8427,1.843,1.8437,1.8434,1.844,1.8441,1.8442,1.8443,1.8443,1.8445,1.8446,1.8446,1.8454,1.8454,0,0,1.8429,1.8428,1.8432,1.8433,1.8432,1.8434,1.8434,1.8441,1.8441,1.8443,1.8444,1.8445,1.8446,1.8446,1.8454,1.8454,0,0,0,1.8428,1.8428,1.843,1.8432,1.8434,1.8434,1.8434,1.8441,1.8442,1.8444,1.8445,1.8446,1.8446,1.8454,1.8454,1.8455,0,0,0,1.8428,1.8427,1.843,1.8429,1.8434,1.8438,1.8434,1.8441,1.8442,1.8445,1.8446,1.8446,1.8454,1.8454,1.8455,1.8455,0,0,0,1.8427,1.8427,1.8428,1.8429,1.8432,1.8437,1.8439,1.8442,1.8443,1.8446,1.8446,1.8454,1.8454,1.8455,1.8455,1.8457,0,0,0,1.8425,1.8427,1.8428,1.8431,1.8432,1.8438,1.8439,1.8443,1.8446,1.8446,1.8454,1.8454,1.8454,1.8455,1.8457,1.8459,1.846,0,0,1.8427,1.8428,1.843,1.8431,1.8436,1.8437,1.8442,1.8446,1.8447,1.8452,1.8452,1.8455,1.8455,1.8457,1.8463,1.8463,0,0,0,1.843,1.8432,1.8434,1.8437,1.8441,1.8444,1.8447,1.8448,1.8452,1.845,1.8456,1.8456,1.8457,1.8458,1.8459,1.846,1.8454,1.8454,1.8454,1.8432,1.8434,1.8438,1.8442,1.8445,1.8449,1.8451,1.8454,1.8455,1.8456,1.8458,1.8461,1.8462,1.8462,1.8464,1.8458,1.8459,1.8459,1.8459,1.8436,1.8439,1.8441,1.8446,1.8449,1.8452,1.8456,1.8457,1.8461,1.846,1.8461,1.846,1.8463,1.8464,1.8459,1.8459,1.8459,1.8459,1.8459,1.8438,1.8439,1.8442,1.8447,1.8451,1.8454,1.8458,1.846,1.8462,1.8463,1.8465,1.8465,1.8465,1.8464,1.8464,1.8464,1.8464,1.8464,1.8464,1.8438,1.8441,1.8444,1.8449,1.8452,1.8455,1.846,1.8462,1.8466,1.8467,1.8467,1.8467,1.8463,1.8461,1.8464,1.8464,1.8464,1.8464,1.8464,1.8442,1.8442,1.8447,1.845,1.8456,1.846,1.8463,1.8468,1.847,1.8472,1.8473,1.8469,1.8469,1.8469,1.8468,1.8472,1.8472,1.8472,1.8472,1.8443,1.8444,1.845,1.8455,1.8459,1.8463,1.8469,1.8472,1.8476,1.8477,1.8477,1.8476,1.8475,1.8476,1.8476,1.8475,1.8481,1.8481,1.8481,1.8446,1.8447,1.8452,1.8456,1.8462,1.8466,1.8472,1.8477,1.848,1.8481,1.8479,1.8478,1.8477,1.8476,1.8476,1.8476,1.8474,0,0]}]]